This demonstration page uses our WeatherBlox Daily Observations layout. Learn more.

39.08367, -84.50855

Hourly Observations for January 21, 2019

Temp ( °F °C ) Dew Point ( °F °C ) Humidity (%) Winds ( mph kmh ) Pressure ( in mb ) Visibility ( mi km ) Precip ( " mm )
12:53 am 00:53 Mostly Cloudy 11 -11.7 1 -17.2 64 64 NW 7 11 30.45 1031 10 16.09344 0 0
1:53 am 01:53 Partly Cloudy 6 -14.4 1 -17.2 79 79 NE 7 11 30.45 1031 10 16.09344 0 0
2:53 am 02:53 Clear 6 -14.4 2 -16.7 83 83 NE 3 6 30.48 1032 10 16.09344 0 0
3:53 am 03:53 Clear 6 -14.4 1 -17.2 79 79 Calm 30.48 1032 10 16.09344 0 0
4:53 am 04:53 Clear 3 -16.1 -1 -18.3 83 83 NE 5 7 30.5 1033 10 16.09344 0 0
5:53 am 05:53 Clear 3 -16.1 -1 -18.3 83 83 NNE 3 6 30.5 1033 10 16.09344 0 0
6:53 am 06:53 Clear 2 -16.7 -1 -18.3 88 88 Calm 30.53 1034 10 16.09344 0 0
7:53 am 07:53 Sunny 2 -16.7 -1 -18.3 88 88 NNE 3 6 30.59 1036 10 16.09344 0 0
8:53 am 08:53 Sunny 3 -16.1 -1 -18.3 83 83 NE 6 9 30.62 1037 10 16.09344 0 0
9:53 am 09:53 Sunny 6 -14.4 0 -17.8 76 76 E 3 6 30.65 1038 10 16.09344 0 0
10:53 am 10:53 Sunny 9 -12.8 -2 -18.9 61 61 ENE 5 7 30.65 1038 10 16.09344 0 0
11:53 am 11:53 Sunny 13 -10.6 -2 -18.9 51 51 N 3 6 30.65 1038 10 16.09344 0 0
12:53 pm 12:53 Sunny 15 -9.4 -3 -19.4 44 44 N 6 9 30.62 1037 10 16.09344 0 0
1:53 pm 13:53 Sunny 17 -8.3 -2 -18.9 43 43 N 6 9 30.62 1037 10 16.09344 0 0
2:53 pm 14:53 Sunny 18 -7.8 -3 -19.4 39 39 NNW 5 7 30.59 1036 10 16.09344 0 0
3:53 pm 15:53 Sunny 19 -7.2 -1 -18.3 41 41 NNE 7 11 30.59 1036 10 16.09344 0 0
4:53 pm 16:53 Sunny 17 -8.3 -1 -18.3 45 45 E 7 11 30.59 1036 10 16.09344 0 0
5:53 pm 17:53 Clear 15 -9.4 -3 -19.4 44 44 E 8 13 30.59 1036 10 16.09344 0 0
6:53 pm 18:53 Clear 13 -10.6 -3 -19.4 49 49 ENE 7 11 30.59 1036 10 16.09344 0 0
7:53 pm 19:53 Clear 12 -11.1 -2 -18.9 53 53 NE 6 9 30.59 1036 10 16.09344 0 0
8:53 pm 20:53 Clear 12 -11.1 0 -17.8 58 58 ENE 8 13 30.59 1036 10 16.09344 0 0
9:53 pm 21:53 Clear 12 -11.1 0 -17.8 58 58 NE 7 11 30.56 1035 10 16.09344 0 0
10:53 pm 22:53 Clear 12 -11.1 2 -16.7 64 64 NE 7 11 30.56 1035 10 16.09344 0 0
11:53 pm 23:53 Partly Cloudy 14 -10 2 -16.7 58 58 NE 6 9 30.56 1035 10 16.09344 0 0

Powered by AerisWeather